EW6143 Weather Reports


time (UTC)temp
C
wind
direction
speed
KPH
gust
KPH
rain 1hr
cm
rain 24hr
cm
rain mn
cm
humidity
%
barometer
mb
20260505124529 21 294 6.4 24.1 0.00 0.00 0.00 80 1005.0
20260505123025 21 310 11.3 20.9 0.00 0.00 0.00 80 1004.4
20260505121532 21 321 8.0 20.9 0.00 0.00 0.00 80 1004.5
20260505120039 21 270 9.7 20.9 0.00 0.00 0.00 80 1004.3
20260505114527 21 5 9.7 17.7 0.00 0.00 0.00 80 1004.3
20260505113029 21 344 11.3 27.4 0.00 0.00 0.00 80 1004.0
20260505111532 21 328 9.7 22.5 0.00 0.00 0.00 80 1004.0
20260505091532 21 337 8.0 22.5 0.00 0.00 0.00 80 1004.7
20260505090027 21 331 9.7 27.4 0.00 0.00 0.00 80 1004.4
20260505084543 21 327 14.5 29.0 0.00 0.00 0.00 80 1004.4
20260505083043 21 355 8.0 27.4 0.00 0.00 0.00 80 1004.5
20260505081530 21 342 9.7 27.4 0.00 0.00 0.00 79 1004.5
20260505080039 21 302 12.9 29.0 0.00 0.00 0.00 79 1004.7
20260505074527 21 308 11.3 19.3 0.00 0.00 0.00 78 1005.0
20260505073036 21 355 9.7 25.7 0.00 0.00 0.00 78 1005.2
20260505071541 22 320 9.7 24.1 0.00 0.00 0.00 77 1005.4
20260505070039 22 321 11.3 27.4 0.00 0.00 0.00 77 1005.6
20260505064528 22 309 12.9 24.1 0.00 0.00 0.00 76 1005.9
20260505063037 22 299 6.4 19.3 0.00 0.00 0.00 76 1005.7
20260505061530 22 313 6.4 22.5 0.00 0.00 0.00 76 1006.0
20260505060050 22 348 11.3 19.3 0.00 0.00 0.00 75 1006.1
20260505054526 22 331 9.7 27.4 0.00 0.00 0.00 75 1006.0
20260505053027 22 344 8.0 20.9 0.00 0.00 0.00 74 1006.3
20260505051528 22 315 8.0 17.7 0.00 0.00 0.00 74 1006.3
20260505041537 22 278 8.0 20.9 0.00 0.00 0.00 73 1006.6
20260505040033 22 333 9.7 22.5 0.00 0.00 0.00 72 1006.7
20260505034529 22 350 9.7 20.9 0.00 0.00 0.00 71 1006.6
20260505033027 22 360 8.0 16.1 0.00 0.00 0.00 71 1006.7
20260505031526 22 292 8.0 17.7 0.00 0.00 0.00 70 1006.7
20260505030028 22 320 9.7 20.9 0.00 0.00 0.00 70 1006.8
20260505024527 23 301 6.4 16.1 0.00 0.00 0.00 69 1006.8
20260505023027 23 329 6.4 19.3 0.00 0.00 0.00 69 1006.4
20260505021530 23 287 8.0 16.1 0.00 0.00 0.00 68 1006.3
20260505020035 23 311 6.4 14.5 0.00 0.00 0.00 66 1006.3
20260505014538 23 299 8.0 19.3 0.00 0.00 0.00 65 1006.4
20260505013037 24 355 8.0 17.7 0.00 0.00 0.00 65 1006.4
20260505011535 24 338 6.4 19.3 0.00 0.00 0.00 64 1006.3
20260505010026 24 302 8.0 20.9 0.00 0.00 0.00 63 1006.2
20260505004540 25 335 11.3 22.5 0.00 0.00 0.00 62 1006.3
20260505003048 25 336 12.9 29.0 0.00 0.00 0.00 61 1006.3
20260505001530 25 323 14.5 29.0 0.00 0.00 0.00 61 1006.5
20260505000034 25 324 14.5 35.4 0.00 0.00 0.00 60 1006.5
20260504234527 25 327 14.5 22.5 0.00 0.00 0.00 60 1006.7
20260504233029 25 360 9.7 24.1 0.00 0.00 0.00 60 1006.7
20260504231530 26 245 11.3 20.9 0.00 0.00 0.00 59 1006.8
20260504230027 26 352 16.1 38.6 0.00 0.00 0.00 57 1007.0
20260504224528 26 327 11.3 29.0 0.00 0.00 0.00 58 1007.2
20260504223031 26 319 16.1 30.6 0.00 0.00 0.00 57 1007.0
20260504221526 26 288 12.9 32.2 0.00 0.00 0.00 57 1007.2
20260504220031 26 301 12.9 37.0 0.00 0.00 0.00 57 1007.4
20260504214531 26 325 14.5 29.0 0.00 0.00 0.00 56 1007.8
20260504213029 26 352 12.9 30.6 0.00 0.00 0.00 56 1007.8
20260504211536 26 320 16.1 38.6 0.00 0.00 0.00 55 1008.1
20260504210026 26 342 12.9 27.4 0.00 0.00 0.00 56 1008.2
20260504204532 26 330 11.3 29.0 0.00 0.00 0.00 55 1008.7
20260504203029 26 301 11.3 33.8 0.00 0.00 0.00 53 1009.1
20260504201529 26 290 14.5 30.6 0.00 0.00 0.00 52 1009.3
20260504200029 26 360 14.5 32.2 0.00 0.00 0.00 52 1009.5
20260504194528 26 351 14.5 27.4 0.00 0.00 0.00 53 1009.9
20260504193030 26 318 14.5 30.6 0.00 0.00 0.00 52 1009.9
20260504191529 26 290 14.5 29.0 0.00 0.00 0.00 51 1010.3
20260504190028 26 331 12.9 29.0 0.00 0.00 0.00 51 1010.3
20260504184541 26 288 11.3 27.4 0.00 0.00 0.00 49 1010.6
20260504183029 25 360 14.5 33.8 0.00 0.00 0.00 49 1010.9
20260504181531 25 360 12.9 25.7 0.00 0.00 0.00 50 1011.1
20260504180028 25 351 14.5 32.2 0.00 0.00 0.00 50 1011.3
20260504174529 24 360 14.5 30.6 0.00 0.00 0.00 50 1011.6
20260504173028 24 350 14.5 29.0 0.00 0.00 0.00 50 1011.8
20260504171529 23 317 14.5 32.2 0.00 0.00 0.00 52 1012.0